When you browse on this site, cookies collect data to enhance your experience and personalize the content and advertising you see.
Visit our Privacy Policy to learn more. By continuing to use the site, you agree to this use of cookies and data.
  • In Austria
  • List of Countries
  • For 7 days
  • Water Temperature
  • Weather Map
  • News
  • Weather Widgets
  • user-avatar
    Login

    Hourly Weather Hlushyn

    Today, 22 September, Sunday

    Time Temperature Precipitation Wind Pressure Humidity
    00:00 +8°C° 0 mm 4 mps 744 mmHg 77%
    01:00 +8°C° 0 mm 4 mps 744 mmHg 75%
    02:00 +8°C° 0 mm 3 mps 744 mmHg 76%
    03:00 +8°C° 0 mm 3 mps 743 mmHg 76%
    04:00 +7°C° 0 mm 3 mps 743 mmHg 76%
    05:00 +7°C° 0 mm 3 mps 743 mmHg 76%
    06:00 +8°C° 0 mm 3 mps 743 mmHg 73%
    07:00 +8°C° 0 mm 4 mps 743 mmHg 70%
    08:00 +10°C° 0 mm 4 mps 743 mmHg 67%
    09:00 +12°C° 0 mm 4 mps 743 mmHg 63%
    10:00 +14°C° 0 mm 4 mps 743 mmHg 59%
    11:00 +16°C° 0 mm 5 mps 743 mmHg 54%
    12:00 +18°C° 0 mm 4 mps 743 mmHg 53%
    13:00 +19°C° 0 mm 4 mps 742 mmHg 51%
    14:00 +20°C° 0 mm 4 mps 742 mmHg 49%
    15:00 +20°C° 0 mm 4 mps 741 mmHg 53%
    16:00 +19°C° 0 mm 3 mps 741 mmHg 56%
    17:00 +19°C° 0 mm 3 mps 741 mmHg 59%
    18:00 +17°C° 0 mm 2 mps 741 mmHg 65%
    19:00 +15°C° 0 mm 2 mps 740 mmHg 70%
    20:00 +13°C° 0 mm 2 mps 740 mmHg 76%
    21:00 +13°C° 0 mm 2 mps 740 mmHg 77%
    22:00 +12°C° 0 mm 1 mps 740 mmHg 78%
    23:00 +12°C° 0 mm 1 mps 740 mmHg 80%

    Tomorrow, 23 September, Monday

    Time Temperature Precipitation Wind Pressure Humidity
    00:00 +11°C° 0 mm 1 mps 740 mmHg 80%
    01:00 +11°C° 0 mm 1 mps 740 mmHg 80%
    02:00 +10°C° 0 mm 1 mps 740 mmHg 80%
    03:00 +10°C° 0 mm 1 mps 740 mmHg 81%
    04:00 +10°C° 0 mm 1 mps 740 mmHg 81%
    05:00 +8°C° 0 mm 0 mps 740 mmHg 82%
    06:00 +10°C° 0 mm 1 mps 740 mmHg 79%
    07:00 +11°C° 0 mm 1 mps 741 mmHg 76%
    08:00 +13°C° 0 mm 1 mps 741 mmHg 73%
    09:00 +14°C° 0 mm 2 mps 741 mmHg 70%
    10:00 +16°C° 0 mm 2 mps 741 mmHg 66%
    11:00 +18°C° 0 mm 3 mps 741 mmHg 63%
    12:00 +18°C° 0 mm 3 mps 741 mmHg 62%
    13:00 +18°C° 0 mm 4 mps 741 mmHg 62%
    14:00 +19°C° 0 mm 4 mps 741 mmHg 61%
    15:00 +18°C° 0 mm 4 mps 740 mmHg 65%
    16:00 +16°C° 0 mm 5 mps 740 mmHg 69%
    17:00 +15°C° 0 mm 5 mps 740 mmHg 72%
    18:00 +13°C° 0 mm 5 mps 740 mmHg 77%
    19:00 +12°C° 0 mm 4 mps 741 mmHg 82%
    20:00 +10°C° 0 mm 4 mps 741 mmHg 87%
    21:00 +10°C° 0 mm 4 mps 741 mmHg 86%
    22:00 +8°C° 0 mm 4 mps 741 mmHg 85%
    23:00 +8°C° 0 mm 4 mps 742 mmHg 84%

    Day after tomorrow, 24 September, Tuesday

    Time Temperature Precipitation Wind Pressure Humidity
    00:00 +8°C° 0 mm 3 mps 742 mmHg 84%
    01:00 +8°C° 0 mm 3 mps 742 mmHg 84%
    02:00 +7°C° 0 mm 3 mps 742 mmHg 83%
    03:00 +7°C° 0 mm 3 mps 741 mmHg 83%
    04:00 +7°C° 0 mm 3 mps 741 mmHg 83%
    05:00 +5°C° 0 mm 3 mps 741 mmHg 83%
    06:00 +7°C° 0 mm 3 mps 741 mmHg 79%
    07:00 +8°C° 0 mm 3 mps 741 mmHg 75%
    08:00 +9°C° 0 mm 3 mps 741 mmHg 70%
    09:00 +11°C° 0 mm 3 mps 741 mmHg 66%
    10:00 +13°C° 0 mm 3 mps 741 mmHg 61%
    11:00 +17°C° 0 mm 3 mps 741 mmHg 57%
    12:00 +18°C° 0 mm 3 mps 740 mmHg 54%
    13:00 +19°C° 0 mm 3 mps 740 mmHg 52%
    14:00 +20°C° 0 mm 3 mps 740 mmHg 50%
    15:00 +20°C° 0 mm 2 mps 739 mmHg 52%
    16:00 +19°C° 0 mm 2 mps 739 mmHg 55%
    17:00 +19°C° 0 mm 2 mps 739 mmHg 57%
    18:00 +17°C° 0 mm 2 mps 739 mmHg 63%
    19:00 +15°C° 0 mm 2 mps 738 mmHg 68%
    20:00 +13°C° 0 mm 2 mps 738 mmHg 73%
    21:00 +12°C° 0 mm 2 mps 738 mmHg 75%
    22:00 +12°C° 0 mm 2 mps 738 mmHg 77%
    23:00 +10°C° 0 mm 3 mps 738 mmHg 79%

    25 September, Wednesday

    Time Temperature Precipitation Wind Pressure Humidity
    00:00 +10°C° 0 mm 3 mps 738 mmHg 80%
    01:00 +10°C° 0 mm 3 mps 738 mmHg 81%
    02:00 +10°C° 0 mm 3 mps 738 mmHg 83%
    03:00 +10°C° 0 mm 3 mps 737 mmHg 82%
    04:00 +10°C° 0 mm 3 mps 737 mmHg 81%
    05:00 +10°C° 0 mm 3 mps 737 mmHg 80%
    06:00 +11°C° 0 mm 3 mps 737 mmHg 76%
    07:00 +12°C° 0 mm 4 mps 737 mmHg 72%
    08:00 +13°C° 0 mm 4 mps 737 mmHg 68%
    09:00 +15°C° 0 mm 5 mps 737 mmHg 62%
    10:00 +17°C° 0 mm 5 mps 737 mmHg 57%
    11:00 +20°C° 0 mm 6 mps 737 mmHg 51%
    12:00 +20°C° 0 mm 5 mps 737 mmHg 50%
    13:00 +20°C° 0 mm 5 mps 736 mmHg 49%
    14:00 +21°C° 0 mm 4 mps 736 mmHg 48%
    15:00 +20°C° 0 mm 3 mps 736 mmHg 53%
    16:00 +19°C° 0 mm 2 mps 735 mmHg 58%
    17:00 +19°C° 0 mm 1 mps 735 mmHg 63%
    18:00 +17°C° 0 mm 2 mps 735 mmHg 67%
    19:00 +16°C° 0 mm 2 mps 735 mmHg 71%
    20:00 +16°C° 0 mm 2 mps 735 mmHg 75%
    21:00 +15°C° 0.1 mm 2 mps 735 mmHg 80%
    22:00 +14°C° 0.1 mm 2 mps 735 mmHg 85%
    23:00 +14°C° 0.1 mm 2 mps 735 mmHg 89%

    26 September, Thursday

    Time Temperature Precipitation Wind Pressure Humidity
    00:00 +13°C° 0 mm 2 mps 735 mmHg 90%
    01:00 +13°C° 0 mm 2 mps 735 mmHg 91%
    02:00 +12°C° 0 mm 2 mps 735 mmHg 92%
    03:00 +12°C° 0 mm 2 mps 735 mmHg 93%
    04:00 +12°C° 0 mm 2 mps 735 mmHg 93%
    05:00 +12°C° 0 mm 2 mps 735 mmHg 93%
    06:00 +13°C° 0 mm 2 mps 735 mmHg 92%
    07:00 +12°C° 0 mm 3 mps 736 mmHg 91%
    08:00 +13°C° 0 mm 3 mps 736 mmHg 90%
    09:00 +14°C° 0 mm 3 mps 736 mmHg 82%
    10:00 +17°C° 0 mm 3 mps 736 mmHg 75%
    11:00 +18°C° 0 mm 3 mps 737 mmHg 67%
    12:00 +19°C° 0.1 mm 4 mps 736 mmHg 64%
    13:00 +19°C° 0.1 mm 4 mps 736 mmHg 62%
    14:00 +20°C° 0.1 mm 4 mps 736 mmHg 60%
    15:00 +19°C° 0 mm 3 mps 736 mmHg 61%
    16:00 +19°C° 0 mm 3 mps 736 mmHg 63%
    17:00 +19°C° 0 mm 3 mps 736 mmHg 64%
    18:00 +17°C° 0 mm 3 mps 736 mmHg 72%
    19:00 +14°C° 0 mm 3 mps 737 mmHg 79%
    20:00 +13°C° 0 mm 3 mps 737 mmHg 86%
    21:00 +12°C° 0 mm 3 mps 737 mmHg 89%
    22:00 +11°C° 0 mm 3 mps 737 mmHg 91%
    23:00 +12°C° 0 mm 2 mps 738 mmHg 94%

    27 September, Friday

    Time Temperature Precipitation Wind Pressure Humidity
    00:00 +11°C° 0 mm 3 mps 738 mmHg 95%
    01:00 +10°C° 0 mm 3 mps 738 mmHg 95%
    02:00 +10°C° 0 mm 3 mps 738 mmHg 96%
    03:00 +10°C° 0 mm 3 mps 738 mmHg 96%
    04:00 +10°C° 0 mm 3 mps 738 mmHg 96%
    05:00 +9°C° 0 mm 3 mps 738 mmHg 96%
    06:00 +10°C° 0 mm 3 mps 738 mmHg 93%
    07:00 +11°C° 0 mm 3 mps 738 mmHg 90%
    08:00 +12°C° 0 mm 4 mps 738 mmHg 87%
    09:00 +13°C° 0.1 mm 4 mps 739 mmHg 81%
    10:00 +15°C° 0.1 mm 5 mps 739 mmHg 75%
    11:00 +17°C° 0.1 mm 5 mps 739 mmHg 69%
    12:00 +17°C° 0.4 mm 5 mps 739 mmHg 68%
    13:00 +17°C° 0.4 mm 5 mps 739 mmHg 67%
    14:00 +19°C° 0.4 mm 5 mps 739 mmHg 67%
    15:00 +18°C° 0.4 mm 4 mps 739 mmHg 71%
    16:00 +17°C° 0.4 mm 3 mps 739 mmHg 75%
    17:00 +16°C° 0.4 mm 3 mps 739 mmHg 80%
    18:00 +15°C° 0.1 mm 2 mps 739 mmHg 84%
    19:00 +14°C° 0.1 mm 1 mps 740 mmHg 88%
    20:00 +13°C° 0.1 mm 1 mps 740 mmHg 91%
    21:00 +13°C° 0 mm 1 mps 740 mmHg 91%
    22:00 +13°C° 0 mm 1 mps 741 mmHg 91%
    23:00 +12°C° 0 mm 0 mps 741 mmHg 91%
    Show more